Regional Weather Roundup
Issued by NWS

Home | Current Version | Previous Version | Graphics & Text | Print | Product List | Glossary On
Versions: 1 2 3 4 5 6 7 8 9 10 11 12 13 14 15 16 17 18 19 20 21 22 23 24 25 26 27 28 29 30 31 32 33 34 35 36 37 38 39 40 41 42 43 44 45 46 47 48 49 50
000
ASUS43 KIND 242259
RWRIN

WEATHER ROUNDUP FOR INDIANA
NATIONAL WEATHER SERVICE INDIANAPOLIS IN
700 PM EDT FRI APR 24 2015

NOTE: "FAIR" INDICATES FEW OR NO CLOUDS BELOW 12,000 FEET WITH NO
SIGNIFICANT WEATHER AND/OR OBSTRUCTIONS TO VISIBILITY.

* - STATION DOES NOT REPORT WEATHER SUCH AS PRECIPITATION OR FOG.

+ - STATION NOT QUALITY CONTROLLED BY THE NATIONAL WEATHER SERVICE.
    USE DATA WITH CAUTION...ESPECIALLY DEWPOINT AND RELATIVE
    HUMIDITY OBSERVATIONS.

INZ001>003-010>013-019-020-250000-
NORTHWEST INDIANA

CITY           SKY/WX    TMP DP  RH WIND       PRES   REMARKS
GARY /AIRPORT/ CLOUDY    50  18  27 E14G25    29.93F
KNOX *+        CLOUDY    59 N/A N/A S7        29.91F
RENSSELAER +   CLOUDY    61  25  25 SE8       29.91F

$$

LMZ046-743>745-250000-
SOUTHERN LAKE MICHIGAN

STATION/POSITION TIME  TEMP    WIND        PRES    WAVE
                       AIR SEA DIR/SP/G            HT
                 (UTC) (F)     (DEG/KT/KT) (MB)    (FT)
BURNS HARBOR     2200   48      70/ 17/ 20 1013.9F
MICHIGAN CITY    2200   47      40/ 17/ 19   N/A
5NW MICH CITY    2200   45 44   80/ 12/ 14   N/A     2

$$

INZ004-005-014>016-021>024-250000-
NORTH CENTRAL INDIANA

CITY           SKY/WX    TMP DP  RH WIND       PRES   REMARKS
ELKHART        LGT RAIN  55  21  26 SE5       29.95F
GOSHEN         CLOUDY    57  25  29 S3        29.95F
SOUTH BEND     CLOUDY    55  26  32 NE13      29.95F
WARSAW +       CLOUDY    59  23  25 CALM      29.94F

$$

INZ006>009-017-018-025>027-250000-
NORTHEAST INDIANA

CITY           SKY/WX    TMP DP  RH WIND       PRES   REMARKS
ANGOLA *+      PTSUNNY   57  21  24 CALM      29.96S
FORT WAYNE     CLOUDY    59  23  25 VRB5      29.96F

$$

INZ028-029-035-036-043>045-051>053-250000-
WEST CENTRAL INDIANA

CITY           SKY/WX    TMP DP  RH WIND       PRES   REMARKS
CRAWFORDSVL +  CLOUDY    57  20  23 E7        29.92F
GREENCASTLE +  CLOUDY    59  23  25 SE7       29.92F
LAFAYETTE      CLOUDY    58  27  30 SE12      29.92F
TERRE HAUTE    CLOUDY    60  33  36 S5        29.91F

$$

INZ030>032-037>040-046>048-054>057-064-065-250000-
CENTRAL INDIANA

CITY           SKY/WX    TMP DP  RH WIND       PRES   REMARKS
COLUMBUS       CLOUDY    57  21  24 S6        29.95F
FRANKFORT +    CLOUDY    59  27  29 E7        29.95F
GREENWOOD *+   CLOUDY    59  21  23 SE6       29.95F
INDIANAPOLIS   CLOUDY    59  24  26 SE12      29.92F
-EAGLE CREEK   CLOUDY    60  26  27 SE9       29.93F
KOKOMO *+      CLOUDY    59  27  29 S8        29.95S
MT COMFORT *+  CLOUDY    59   0   9 S7        29.96F
SHELBYVILLE    CLOUDY    61  30  31 S5        29.94F

$$

INZ033-034-041-042-049-050-058-059-250000-
EAST CENTRAL INDIANA

CITY           SKY/WX    TMP DP  RH WIND       PRES   REMARKS
MUNCIE         CLOUDY    59  21  23 SW5       29.96F

$$

INZ060-061-067>069-081>083-085>088-250000-
SOUTHWEST INDIANA

CITY           SKY/WX    TMP DP  RH WIND       PRES   REMARKS
EVANSVILLE     CLOUDY    63  32  31 S12       29.93F
HUNTINGBURG *+ CLOUDY    63  30  29 S6        29.94S

$$

INZ062-063-066-070>080-084-089>092-250000-
SOUTH CENTRAL AND SOUTHEAST INDIANA

CITY           SKY/WX    TMP DP  RH WIND       PRES   REMARKS
BLOOMINGTON    CLOUDY    61  24  24 SE5       29.92F
MADISON *+     CLOUDY    61  19  20 SE7       29.98F
SEYMOUR +      CLOUDY    63  32  31 SE6       29.95F

$$



USA.gov is the U.S. government's official web portal to all federal, state and local government web resources and services.